This demonstration page uses our WeatherBlox Daily Observations layout. Learn more.

Left ArrowRight Arrow

31.84235, -102.49876

Hourly Observations for August 12, 2017

Temp ( °F °C ) Dew Point ( °F °C ) Humidity (%) Winds ( mph kmh ) Pressure ( in mb ) Visibility ( mi km ) Precip ( " mm )
12:53 am 00:53 Clear 82 27.8 59 15 46 46 SSE 10 17 29.90 1013 10 16 0.00 0.00
1:53 am 01:53 Clear 81 27.2 60 15.6 49 49 SSE 10 17 29.89 1012 10 16 0.00 0.00
2:53 am 02:53 Clear 79 26.1 61 16.1 54 54 SE 9 15 29.88 1012 10 16 0.00 0.00
3:53 am 03:53 Mostly Cloudy 78 25.6 62 16.7 58 58 SE 13 20 29.88 1012 10 16 0.00 0.00
4:53 am 04:53 Cloudy 78 25.6 64 17.8 62 62 VRB 3 6 29.91 1013 10 16 0.00 0.00
5:20 am 05:20 Mostly Cloudy with Nearby Thunderstorms 78 25.6 64 17.8 62 62 NNW 9 15 29.91 1013 10 16 0.00 0.00
5:53 am 05:53 Windy with Storms Likely 74 23.3 65 18.3 74 74 N 21 33 29.94 1014 10 16 0.00 0.03
6:21 am 06:21 Mostly Cloudy with Nearby Thunderstorms 72 22.2 67 19.4 84 84 N 9 15 29.97 1015 10 16 0.00 0.03
6:38 am 06:38 Mostly Clear 71 21.7 67 19.4 87 87 NNE 8 13 29.97 1015 10 16 0.00 0.03
6:53 am 06:53 Mostly Clear 71 21.7 68 20 90 90 NNE 10 17 29.94 1014 10 16 0.00 0.03
7:53 am 07:53 Mostly Cloudy 72 22.2 68 20 87 87 ENE 9 15 29.94 1014 10 16 0.00 0.00
8:53 am 08:53 Cloudy 73 22.8 69 20.6 87 87 N 6 9 29.97 1015 10 16 0.00 0.03
9:22 am 09:22 Cloudy with Nearby Thunderstorms 73 22.8 69 20.6 87 87 NNW 12 19 30.00 1016 6 10 0.00 0.03
9:34 am 09:34 Cloudy with Heavy Rain 72 22.2 70 21.1 94 94 N 12 19 30.00 1016 3 4 0.00 0.03
9:53 am 09:53 Cloudy with Light Rain 71 21.7 69 20.6 94 94 NNE 9 15 29.98 1015 7 11 0.00 0.00
10:53 am 10:53 Sunny 73 22.8 70 21.1 90 90 ESE 10 17 29.96 1015 10 16 0.00 0.00
11:53 am 11:53 Mostly Sunny 77 25 69 20.6 77 77 SE 9 15 29.96 1014 10 16 0.00 0.00
12:53 pm 12:53 Sunny 82 27.8 68 20 63 63 SSE 9 15 29.92 1013 10 16 0.00 0.00
1:53 pm 13:53 Sunny 85 29.4 66 18.9 53 53 VRB 6 9 29.91 1013 10 16 0.00 0.00
2:53 pm 14:53 Sunny 87 30.6 65 18.3 48 48 E 5 7 29.90 1013 10 16 0.00 0.00
3:53 pm 15:53 Mostly Cloudy 88 31.1 65 18.3 46 46 ENE 3 6 29.88 1012 10 16 0.00 0.00
4:53 pm 16:53 Sunny 89 31.7 64 17.8 43 43 VRB 3 6 29.84 1011 10 16 0.00 0.00
5:53 pm 17:53 Sunny 93 33.9 64 17.8 38 38 NNW 6 9 29.82 1010 10 16 0.00 0.00
6:53 pm 18:53 Sunny 91 32.8 64 17.8 41 41 Calm 29.81 1009 10 16 0.00 0.00
7:53 pm 19:53 Sunny 90 32.2 66 18.9 45 45 NE 6 9 29.83 1010 10 16 0.00 0.00
8:49 pm 20:49 Clear with Nearby Thunderstorms 84 29 68 20 58 58 NE 7 11 29.77 1008 10 16 0.00 0.00
8:53 pm 20:53 Clear with Nearby Thunderstorms 85 29.4 68 20 57 57 NE 7 11 29.84 1010 10 16 0.00 0.00
9:35 pm 21:35 Mostly Cloudy with Thunderstorms 81 27.2 68 20 65 65 SSE 18 30 29.83 1010 10 16 0.00 0.00
9:53 pm 21:53 Mostly Cloudy with Thunderstorms 78 25.6 66 18.9 67 67 SSW 13 20 29.89 1012 10 16 0.00 0.00
10:28 pm 22:28 Mostly Clear 76 24.4 69 20.6 79 79 SE 8 13 29.85 1011 10 16 0.06 1.52
10:53 pm 22:53 Clear 76 24.4 71 21.7 85 85 SE 12 19 29.89 1012 10 16 0.06 1.52
11:53 pm 23:53 Clear 73 22.8 68 20 84 84 SSE 12 19 29.91 1013 10 16 0.00 0.00

Powered by AerisWeather